Temp
79 80 81 83 82 82 81 81 83 84 84 84 84 86 86 86 84 84 84 83 82 82 82 82 82 82 82 83 83 83 84 84 85 85 85 85 86 86 86 88 88 86 88 89 88 87 88 88 88 88 88 88 88 88 86 86 86 89 87 86 87 87 87
77 78 80 82 82 82 82 81 82 84 84 85 84 84 85 86 84 84 83 83 83 83 83 83 82 82 83 83 84 83 83 84 84 84 86 85 84 85 86 87 87 86 85 87 88 88 88 89 88 88 88 88 89 87 88 87 87 87 88 87 87 87 87
77 78 78 80 81 82 81 81 82 84 84 85 86 85 84 84 84 83 83 83 83 83 84 84 83 83 84 83 83 83 84 85 84 85 86 87 87 89 87 86 87 88 89 89 87 89 89 89 87 87 88 88 90 88 87 87 87 87 87 86 87 88 86
75 76 78 79 80 81 82 82 82 84 84 81 80 83 83 83 84 84 84 84 83 84 83 85 85 86 85 84 84 83 84 84 85 88 89 89 89 89 87 86 86 88 87 88 90 89 91 89 89 87 86 87 87 88 89 88 89 88 88 86 87 88 86
76 76 77 77 78 80 81 82 82 80 77 77 81 83 84 85 85 85 85 86 86 85 87 87 88 88 86 86 87 87 86 87 86 87 88 89 88 88 88 89 89 88 88 90 88 87 86 86 89 88 87 86 87 88 87 88 88 87 86 86 86 87 88
75 74 76 77 78 79 81 82 81 80 79 76 78 81 85 85 87 87 86 86 85 86 87 87 88 87 86 87 88 88 87 86 86 86 87 87 87 88 89 89 90 89 90 89 90 89 88 88 88 89 89 90 90 90 90 89 90 89 88 87 87 88 90
74 74 74 75 76 78 80 80 80 79 79 79 78 82 85 85 86 87 87 86 84 83 86 87 88 87 86 87 86 86 86 87 86 87 88 88 88 88 88 89 89 90 90 90 89 89 89 88 88 88 89 89 89 90 88 87 87 88 87 86 85 86 86
74 74 74 74 75 76 77 79 79 79 79 81 81 81 82 85 86 86 87 86 86 87 85 87 87 85 85 86 86 86 87 88 88 88 88 89 89 88 89 89 89 89 89 89 89 89 89 89 90 90 89 89 89 88 89 87 86 88 87 85 85 86 88
72 73 73 74 75 75 76 76 77 78 78 79 80 81 82 84 85 85 84 84 84 84 84 86 86 85 84 84 84 85 87 88 88 88 88 88 89 89 90 90 90 90 89 90 91 90 90 90 90 88 87 87 87 86 87 86 87 86 86 85 84 85 87
71 72 73 74 74 74 75 76 76 77 77 78 78 79 80 82 83 83 83 83 83 82 82 83 84 84 84 84 85 86 86 86 87 88 88 88 89 89 90 91 91 90 90 91 91 91 90 90 90 88 85 85 85 85 85 86 86 85 85 85 85 85 84
71 72 73 74 73 73 74 74 74 74 75 76 77 78 79 81 81 82 83 83 84 83 83 85 85 84 83 84 85 86 86 86 88 87 87 87 89 90 90 91 91 91 90 91 91 91 91 89 88 86 85 84 84 85 84 85 85 85 86 86 86 86 86
70 71 71 72 73 73 73 74 75 74 75 75 76 77 76 77 80 81 81 83 84 84 83 83 85 84 83 84 84 84 86 87 87 87 87 87 87 89 90 91 91 91 91 91 90 90 91 88 87 86 85 84 85 85 85 85 84 84 84 85 86 85 86
70 70 70 71 71 72 73 73 73 74 75 76 76 76 75 75 76 78 79 81 83 84 84 83 82 82 82 83 84 84 85 87 87 87 88 86 86 87 89 90 91 91 91 91 90 90 90 90 87 85 85 85 85 85 85 84 84 83 83 81 82 84 84
69 70 70 70 71 71 72 72 73 73 74 75 76 76 76 76 76 76 77 77 80 83 84 86 84 82 82 82 82 82 83 85 86 86 85 85 85 85 86 88 90 90 90 90 89 90 90 90 89 88 88 87 85 85 85 84 84 83 79 79 80 83 85
67 67 67 69 69 69 70 71 72 72 73 74 75 75 76 76 76 75 75 77 77 79 81 83 83 82 82 81 81 81 82 83 84 85 84 84 84 84 84 85 87 88 88 88 89 91 91 90 91 89 88 86 85 85 85 85 85 80 79 78 79 80 82
67 67 68 69 69 69 69 70 71 71 72 73 73 74 75 76 76 76 75 76 77 78 80 82 81 81 81 81 81 82 82 82 82 83 83 83 82 82 83 85 86 87 87 87 88 88 88 88 88 90 89 87 85 86 85 86 83 78 77 78 79 79 81
66 68 70 71 70 69 69 70 70 70 70 70 71 72 73 74 75 76 75 76 77 78 80 81 81 81 81 81 82 82 82 82 82 82 81 82 82 82 82 83 84 85 85 86 86 86 86 86 87 88 89 88 88 88 87 85 84 75 72 72 75 79 80
66 68 69 70 70 70 70 70 70 70 70 70 71 72 72 72 73 75 75 76 76 78 79 79 80 80 80 81 82 82 81 82 82 81 81 81 81 82 82 83 83 83 83 84 86 85 87 87 86 86 87 88 89 88 87 86 67 66 69 70 71 75 81
67 68 69 69 69 69 69 70 70 70 71 71 71 72 73 73 73 72 74 75 77 77 77 78 78 79 80 81 81 81 82 81 81 81 81 81 82 82 82 82 82 82 83 84 85 87 84 84 86 86 86 86 84 84 85 82 64 65 67 69 69 70 77
69 70 70 71 70 70 70 71 71 71 71 71 72 72 72 73 72 72 73 73 75 76 76 76 77 78 79 80 81 81 81 81 81 81 81 81 82 82 81 81 81 83 84 85 84 84 84 85 84 85 84 84 84 81 82 79 65 63 66 67 67 68 73
69 70 70 70 71 71 71 71 71 71 71 71 70 70 70 70 71 71 71 72 72 74 74 75 75 76 77 78 80 81 81 81 81 81 81 81 81 81 81 81 81 82 83 84 83 82 82 83 83 83 82 82 82 80 80 75 59 61 63 64 65 67 73
68 69 69 71 71 70 71 71 70 70 69 69 70 69 69 69 69 69 69 70 71 72 72 73 75 76 77 77 78 79 81 81 80 80 81 81 81 80 80 81 81 81 82 82 82 83 83 82 82 79 78 78 78 76 76 73 58 60 62 61 63 66 79
69 69 70 71 72 71 72 72 70 69 68 69 69 69 69 69 68 68 68 68 70 70 71 73 73 74 76 76 77 78 80 80 80 80 80 80 80 79 80 80 80 80 81 80 80 79 78 77 77 76 75 75 75 74 73 71 62 58 60 61 62 70 82
70 71 71 72 73 72 72 71 69 69 68 69 69 70 69 69 69 69 68 68 68 69 70 71 73 74 75 76 77 77 78 80 80 80 80 79 79 79 79 80 80 80 80 79 77 76 75 74 73 73 74 74 73 74 72 70 63 57 58 60 63 75 80
71 72 72 72 71 71 70 68 68 68 69 69 68 69 69 69 69 68 67 67 68 69 69 69 72 73 74 75 77 78 78 79 79 80 80 79 79 80 79 79 79 80 79 77 76 74 73 74 73 71 71 72 71 68 70 70 65 57 58 59 64 74 76
71 71 72 72 72 71 70 69 69 69 68 67 67 69 69 69 68 67 67 68 69 68 68 69 71 73 75 76 76 77 77 78 78 79 79 79 79 79 79 78 76 74 74 74 73 71 71 70 69 68 68 69 69 70 70 69 68 63 56 58 60 64 75
72 72 72 72 71 69 69 69 69 68 67 67 68 68 69 68 66 66 67 68 68 69 71 72 72 72 73 75 76 76 76 77 77 77 78 79 79 78 77 75 74 73 73 72 72 70 69 68 67 67 66 68 69 69 69 70 69 64 56 57 58 61 67
73 73 73 71 69 69 69 69 68 67 68 68 69 68 68 67 64 65 66 66 67 70 72 73 73 72 71 72 74 75 75 75 75 77 78 78 78 76 73 73 73 73 71 70 68 68 67 68 68 66 65 66 67 68 68 68 66 66 59 56 56 58 62
70 70 68 68 69 70 69 68 67 66 66 68 68 68 67 65 63 64 65 65 68 71 72 73 73 73 71 71 71 73 74 74 74 75 77 76 76 75 70 70 71 70 69 68 68 67 66 66 65 64 62 62 63 65 66 66 66 64 64 58 56 57 60
69 68 68 70 70 68 68 65 66 65 65 67 68 67 66 64 62 63 64 64 67 68 70 72 73 72 70 70 70 72 73 74 74 74 75 75 74 70 68 66 66 66 67 67 66 65 64 63 64 62 60 59 60 62 64 66 65 65 64 62 56 56 55
68 67 67 66 68 67 67 66 64 64 65 67 66 67 65 64 62 63 63 64 67 67 68 70 72 72 70 70 71 72 73 73 73 73 74 74 71 68 66 66 65 63 64 64 63 62 61 61 62 60 59 59 59 60 61 63 63 64 64 63 60 57 56
67 67 67 68 67 67 66 66 64 64 64 65 67 66 65 64 63 61 62 65 65 66 66 67 68 69 71 71 72 71 72 71 69 70 71 70 69 69 67 65 63 62 62 62 61 60 59 58 58 58 58 58 59 59 59 60 61 63 65 66 66 63 60
66 65 65 65 65 66 66 65 64 63 63 63 65 66 67 65 64 63 64 64 65 66 66 66 65 64 63 63 63 64 66 66 65 64 64 64 65 66 66 64 63 63 61 60 59 58 58 58 58 58 57 57 57 58 59 58 59 62 64 64 64 64 65
65 65 65 65 65 65 65 63 62 63 64 63 64 65 65 66 65 65 64 65 66 66 66 64 63 62 62 61 61 61 62 63 64 62 61 61 61 61 61 62 62 60 59 59 58 57 56 56 56 56 55 55 55 55 56 56 58 59 60 61 62 63 64
64 64 65 65 65 65 64 63 63 63 64 64 64 65 66 65 65 65 65 66 66 65 64 63 63 62 62 62 61 60 60 59 59 58 58 57 56 54 54 56 58 57 57 59 58 58 56 55 56 57 56 57 56 55 56 58 59 58 54 55 54 59 62
65 65 65 66 66 65 64 64 63 63 63 64 66 67 67 67 67 67 67 67 67 66 64 63 62 61 61 61 61 61 60 59 58 58 58 57 56 55 54 53 49 54 56 55 56 53 53 54 56 57 56 54 54 56 58 58 58 49 44 43 43 45 50
65 65 65 66 65 64 64 64 64 64 63 65 67 68 69 68 67 66 66 66 66 66 65 64 62 62 62 62 62 61 60 59 58 57 55 55 55 54 53 52 50 45 47 51 51 47 44 45 47 51 55 57 53 51 49 48 45 42 42 42 42 43 43
65 66 67 67 66 65 65 64 63 62 62 65 67 68 69 69 68 66 66 66 66 66 65 64 63 62 61 62 62 62 61 59 57 56 55 54 54 54 54 53 52 51 45 44 46 45 43 42 43 44 46 50 53 55 52 47 43 42 42 42 42 43 43
MSLP
1012.58 1012.62 1012.46 1012.34 1012.50 1012.70 1012.90 1012.90 1012.86 1012.98 1013.10 1013.26 1013.42 1013.50 1013.70 1013.90 1014.18 1014.38 1014.66 1014.94 1015.22 1015.46 1015.46 1015.62 1015.78 1015.90 1016.18 1016.34 1016.42 1016.50 1016.58 1016.78 1016.94 1017.18 1017.38 1017.42 1017.38 1017.50 1017.70 1017.66 1017.82 1017.94 1017.86 1017.98 1017.94 1018.06 1017.94 1017.86 1017.98 1018.02 1018.02 1018.14 1018.18 1018.22 1018.34 1018.38 1018.50 1018.46 1018.50 1018.54 1018.62 1018.70 1018.70
1012.82 1012.58 1012.46 1012.22 1012.34 1012.42 1012.50 1012.62 1012.66 1012.70 1012.82 1012.90 1013.14 1013.38 1013.46 1013.70 1013.94 1014.30 1014.50 1014.66 1014.82 1015.06 1015.18 1015.38 1015.58 1015.70 1015.82 1016.06 1016.14 1016.38 1016.58 1016.66 1016.74 1016.90 1016.98 1017.22 1017.26 1017.34 1017.30 1017.42 1017.54 1017.70 1017.74 1017.62 1017.62 1017.62 1017.70 1017.74 1017.78 1017.90 1017.98 1017.94 1017.98 1018.02 1018.10 1018.18 1018.26 1018.38 1018.38 1018.46 1018.66 1018.74 1018.66
1012.94 1012.58 1012.46 1012.30 1012.26 1012.26 1012.34 1012.46 1012.50 1012.46 1012.58 1012.74 1013.02 1013.38 1013.58 1013.62 1013.66 1013.94 1014.26 1014.54 1014.82 1014.90 1014.90 1015.10 1015.26 1015.42 1015.54 1015.74 1016.02 1016.22 1016.34 1016.42 1016.62 1016.78 1016.98 1016.98 1017.06 1017.02 1017.02 1017.18 1017.26 1017.30 1017.26 1017.26 1017.46 1017.50 1017.42 1017.58 1017.62 1017.70 1017.78 1017.86 1017.78 1017.90 1017.98 1018.06 1018.14 1018.22 1018.30 1018.42 1018.54 1018.58 1018.70
1013.02 1012.86 1012.54 1012.22 1012.10 1012.02 1012.06 1012.18 1012.42 1012.42 1012.58 1012.90 1013.22 1013.42 1013.66 1013.82 1013.66 1013.78 1013.90 1014.10 1014.50 1014.74 1014.98 1014.86 1015.02 1015.18 1015.30 1015.58 1015.78 1015.98 1016.14 1016.18 1016.22 1016.30 1016.38 1016.46 1016.62 1016.66 1016.90 1017.06 1017.14 1017.10 1017.30 1017.34 1017.14 1017.22 1017.22 1017.34 1017.50 1017.62 1017.74 1017.86 1017.90 1017.82 1017.86 1018.02 1018.02 1018.10 1018.14 1018.26 1018.38 1018.30 1018.42
1012.90 1012.66 1012.62 1012.58 1012.46 1012.38 1012.26 1012.26 1012.26 1012.50 1012.74 1012.70 1012.74 1012.70 1012.86 1013.10 1013.38 1013.70 1013.90 1013.82 1013.98 1014.26 1014.26 1014.38 1014.50 1014.74 1014.94 1015.10 1015.34 1015.46 1015.66 1015.78 1015.98 1015.98 1016.06 1016.14 1016.30 1016.46 1016.70 1016.78 1016.86 1016.98 1016.98 1016.94 1016.98 1017.22 1017.34 1017.42 1017.42 1017.50 1017.62 1017.74 1017.82 1017.82 1017.94 1017.90 1017.98 1018.02 1018.10 1018.14 1018.30 1018.18 1018.22
1013.26 1013.18 1012.94 1012.70 1012.50 1012.30 1012.14 1011.98 1012.10 1012.34 1012.58 1012.98 1013.26 1013.22 1012.82 1012.78 1012.78 1013.18 1013.50 1013.86 1014.18 1014.10 1014.10 1014.26 1014.42 1014.54 1014.86 1014.82 1014.94 1015.10 1015.22 1015.42 1015.58 1015.74 1015.90 1016.02 1016.26 1016.42 1016.50 1016.54 1016.62 1016.70 1016.82 1016.86 1016.74 1016.86 1017.02 1017.18 1017.22 1017.26 1017.42 1017.42 1017.54 1017.62 1017.58 1017.70 1017.66 1017.70 1017.78 1017.90 1017.98 1017.94 1017.94
1013.54 1013.42 1013.30 1013.02 1012.78 1012.50 1012.26 1012.22 1012.30 1012.46 1012.54 1012.70 1012.62 1012.38 1012.42 1012.62 1012.70 1012.70 1012.94 1013.38 1013.74 1014.18 1014.26 1014.34 1014.26 1014.34 1014.54 1014.58 1014.78 1014.94 1015.18 1015.22 1015.38 1015.50 1015.54 1015.74 1015.86 1016.10 1016.18 1016.22 1016.34 1016.38 1016.38 1016.42 1016.70 1016.66 1016.86 1017.02 1017.10 1017.18 1017.22 1017.30 1017.38 1017.46 1017.54 1017.62 1017.58 1017.42 1017.54 1017.74 1017.94 1017.90 1017.94
1013.54 1013.46 1013.22 1013.06 1012.94 1012.78 1012.58 1012.42 1012.34 1012.38 1012.42 1012.42 1012.54 1012.62 1012.62 1012.42 1012.50 1012.70 1012.82 1012.86 1013.14 1013.50 1013.82 1014.02 1014.14 1014.26 1014.34 1014.42 1014.54 1014.74 1014.82 1014.90 1014.94 1015.10 1015.30 1015.50 1015.62 1015.86 1015.86 1015.98 1016.06 1016.10 1016.22 1016.50 1016.42 1016.46 1016.66 1016.78 1016.78 1016.82 1017.02 1017.18 1017.26 1017.26 1017.18 1017.26 1017.38 1017.34 1017.42 1017.74 1017.90 1017.90 1017.66
1013.74 1013.58 1013.50 1013.26 1013.06 1012.82 1012.74 1012.66 1012.58 1012.50 1012.50 1012.42 1012.38 1012.34 1012.34 1012.34 1012.38 1012.46 1012.58 1012.74 1012.94 1013.22 1013.34 1013.34 1013.54 1013.74 1014.06 1014.30 1014.50 1014.62 1014.54 1014.66 1014.82 1014.90 1015.10 1015.30 1015.38 1015.50 1015.50 1015.54 1015.66 1015.70 1016.02 1016.14 1016.14 1016.10 1016.30 1016.42 1016.54 1016.78 1016.90 1017.02 1017.06 1017.10 1017.14 1017.22 1017.30 1017.26 1017.42 1017.62 1017.74 1017.82 1017.66
1014.06 1013.74 1013.46 1013.26 1013.10 1012.98 1012.86 1012.74 1012.66 1012.62 1012.66 1012.70 1012.62 1012.42 1012.34 1012.26 1012.26 1012.30 1012.38 1012.54 1012.74 1013.06 1013.10 1013.14 1013.26 1013.46 1013.78 1014.06 1014.22 1014.30 1014.46 1014.62 1014.58 1014.70 1014.86 1015.06 1015.06 1015.18 1015.18 1015.14 1015.26 1015.30 1015.58 1015.74 1015.74 1015.94 1015.94 1016.10 1016.30 1016.54 1016.78 1016.94 1016.98 1017.06 1017.14 1017.18 1017.18 1017.22 1017.26 1017.38 1017.38 1017.46 1017.50
1014.18 1013.90 1013.58 1013.38 1013.38 1013.34 1013.06 1012.98 1012.94 1012.90 1012.78 1012.70 1012.66 1012.62 1012.50 1012.42 1012.34 1012.34 1012.38 1012.38 1012.54 1012.62 1012.62 1012.78 1012.82 1013.14 1013.46 1013.74 1014.02 1014.06 1014.26 1014.38 1014.38 1014.54 1014.70 1014.78 1014.70 1014.82 1014.82 1014.90 1014.94 1015.02 1015.22 1015.38 1015.58 1015.58 1015.70 1015.94 1016.02 1016.38 1016.58 1016.82 1016.90 1016.98 1017.02 1017.02 1017.02 1017.10 1017.10 1017.02 1016.98 1017.06 1017.10
1014.34 1014.26 1014.10 1013.78 1013.54 1013.42 1013.34 1013.14 1012.90 1012.86 1012.78 1012.70 1012.62 1012.62 1012.70 1012.70 1012.58 1012.46 1012.46 1012.38 1012.26 1012.46 1012.62 1012.66 1012.66 1012.78 1013.14 1013.42 1013.82 1013.94 1013.98 1014.02 1014.14 1014.26 1014.34 1014.46 1014.50 1014.50 1014.50 1014.54 1014.66 1014.74 1014.86 1014.98 1015.30 1015.38 1015.46 1015.74 1015.90 1016.06 1016.34 1016.42 1016.54 1016.58 1016.66 1016.70 1016.78 1016.90 1016.94 1016.90 1016.90 1016.98 1016.98
1014.42 1014.34 1014.22 1014.10 1013.86 1013.58 1013.34 1013.22 1013.10 1012.90 1012.70 1012.54 1012.50 1012.46 1012.58 1012.74 1012.78 1012.74 1012.66 1012.54 1012.34 1012.22 1012.38 1012.50 1012.82 1013.14 1013.18 1013.22 1013.38 1013.58 1013.66 1013.66 1013.74 1013.78 1013.90 1014.02 1014.14 1014.14 1014.22 1014.30 1014.30 1014.46 1014.62 1014.62 1014.86 1015.14 1015.34 1015.34 1015.66 1015.74 1015.94 1016.06 1016.14 1016.26 1016.34 1016.50 1016.58 1016.78 1017.02 1017.58 1017.74 1017.46 1017.18
1014.34 1014.22 1014.18 1014.02 1013.86 1013.74 1013.62 1013.38 1013.22 1013.06 1012.86 1012.66 1012.42 1012.26 1012.26 1012.34 1012.46 1012.66 1012.70 1012.74 1012.50 1012.30 1012.26 1012.26 1012.54 1012.86 1013.10 1013.22 1013.30 1013.30 1013.34 1013.26 1013.22 1013.38 1013.54 1013.62 1013.78 1013.98 1014.06 1014.10 1014.14 1014.22 1014.26 1014.38 1014.66 1014.86 1014.94 1015.10 1015.26 1015.38 1015.42 1015.62 1015.82 1015.90 1016.02 1016.26 1016.50 1016.90 1017.82 1018.02 1017.58 1017.26 1017.14
1014.58 1014.54 1014.42 1014.26 1014.10 1013.98 1013.82 1013.62 1013.42 1013.26 1013.06 1012.78 1012.58 1012.50 1012.34 1012.26 1012.26 1012.34 1012.38 1012.34 1012.38 1012.42 1012.30 1012.14 1012.34 1012.62 1012.86 1013.02 1013.14 1013.10 1012.94 1012.94 1013.02 1013.14 1013.34 1013.50 1013.70 1013.90 1014.02 1014.06 1014.02 1014.06 1014.18 1014.30 1014.42 1014.38 1014.50 1014.62 1014.74 1015.02 1015.26 1015.34 1015.54 1015.70 1015.78 1015.98 1016.26 1016.62 1016.90 1017.18 1017.38 1017.50 1017.54
1014.66 1014.50 1014.34 1014.26 1014.18 1014.14 1014.06 1013.86 1013.70 1013.58 1013.30 1013.06 1012.94 1012.70 1012.50 1012.34 1012.30 1012.30 1012.30 1012.22 1012.18 1012.22 1012.10 1012.06 1012.22 1012.42 1012.54 1012.70 1012.66 1012.58 1012.62 1012.74 1012.82 1012.94 1013.06 1013.38 1013.58 1013.70 1013.74 1013.82 1013.90 1013.94 1014.06 1014.14 1014.18 1014.30 1014.38 1014.50 1014.58 1014.70 1014.90 1015.18 1015.34 1015.38 1015.54 1015.66 1015.78 1016.06 1016.50 1016.70 1016.78 1016.82 1016.94
1014.70 1014.46 1014.14 1013.94 1014.02 1014.10 1014.06 1013.90 1013.82 1013.74 1013.74 1013.58 1013.30 1013.02 1012.74 1012.54 1012.30 1012.18 1012.22 1012.18 1012.06 1012.02 1011.82 1011.82 1012.02 1012.06 1012.18 1012.30 1012.18 1012.22 1012.30 1012.50 1012.66 1012.74 1012.94 1012.98 1013.18 1013.34 1013.58 1013.66 1013.66 1013.78 1013.90 1013.98 1014.02 1014.14 1014.26 1014.38 1014.58 1014.62 1014.58 1014.78 1014.94 1015.10 1015.18 1015.34 1015.58 1016.02 1016.26 1016.30 1016.34 1016.62 1017.10
1014.62 1014.30 1014.10 1013.94 1013.86 1013.82 1013.86 1013.86 1013.82 1013.78 1013.74 1013.58 1013.30 1013.06 1012.90 1012.74 1012.46 1012.30 1012.26 1012.06 1012.02 1011.86 1011.70 1011.78 1011.78 1011.82 1011.78 1011.74 1011.78 1011.90 1012.06 1012.22 1012.34 1012.58 1012.66 1012.70 1012.86 1012.98 1013.14 1013.34 1013.54 1013.70 1013.74 1013.78 1013.86 1013.94 1013.94 1014.18 1014.30 1014.38 1014.38 1014.42 1014.54 1014.74 1014.94 1015.18 1016.06 1016.14 1016.22 1016.46 1017.06 1017.14 1016.86
1014.50 1014.18 1013.94 1013.94 1013.94 1013.90 1013.82 1013.82 1013.74 1013.58 1013.46 1013.34 1013.18 1013.02 1012.78 1012.62 1012.62 1012.50 1012.18 1012.02 1011.78 1011.66 1011.74 1011.74 1011.70 1011.66 1011.62 1011.46 1011.50 1011.58 1011.66 1011.82 1012.06 1012.22 1012.38 1012.46 1012.50 1012.58 1012.78 1013.06 1013.34 1013.46 1013.58 1013.62 1013.46 1013.54 1013.86 1013.98 1014.10 1014.18 1014.14 1014.30 1014.62 1014.86 1014.86 1015.34 1016.06 1016.22 1016.30 1016.22 1015.98 1016.30 1016.50
1014.02 1013.74 1013.66 1013.54 1013.54 1013.62 1013.54 1013.42 1013.38 1013.30 1013.22 1013.14 1012.94 1012.78 1012.66 1012.54 1012.50 1012.38 1012.22 1012.06 1011.78 1011.70 1011.66 1011.70 1011.62 1011.54 1011.42 1011.30 1011.26 1011.30 1011.34 1011.50 1011.70 1011.90 1011.94 1011.98 1012.18 1012.34 1012.54 1012.74 1012.94 1012.94 1012.94 1013.06 1013.22 1013.46 1013.62 1013.66 1013.86 1013.90 1014.06 1014.26 1014.50 1014.86 1015.06 1015.46 1016.18 1016.38 1016.42 1016.14 1015.74 1015.98 1016.50
1013.98 1013.78 1013.62 1013.50 1013.42 1013.34 1013.30 1013.26 1013.22 1013.10 1013.06 1013.02 1012.98 1012.90 1012.86 1012.74 1012.58 1012.46 1012.42 1012.14 1012.06 1011.74 1011.62 1011.54 1011.58 1011.46 1011.30 1011.22 1011.02 1010.98 1011.06 1011.18 1011.34 1011.50 1011.54 1011.66 1011.86 1012.10 1012.34 1012.42 1012.54 1012.70 1012.82 1012.90 1013.06 1013.26 1013.42 1013.50 1013.74 1013.86 1014.10 1014.34 1014.54 1014.90 1015.22 1015.74 1016.22 1016.30 1016.46 1016.46 1016.34 1016.14 1016.10
1013.94 1013.78 1013.70 1013.34 1013.30 1013.30 1013.22 1013.18 1013.18 1013.18 1013.18 1012.98 1012.94 1012.90 1012.82 1012.82 1012.62 1012.70 1012.58 1012.30 1012.18 1011.94 1011.70 1011.50 1011.38 1011.26 1011.18 1011.14 1010.98 1010.86 1010.74 1010.86 1011.02 1011.14 1011.22 1011.38 1011.62 1011.94 1012.18 1012.26 1012.30 1012.50 1012.50 1012.70 1012.82 1012.82 1012.98 1013.26 1013.46 1013.98 1014.34 1014.54 1014.74 1015.10 1015.38 1015.74 1016.10 1016.02 1016.10 1016.22 1016.30 1016.34 1016.06
1013.58 1013.54 1013.38 1013.18 1013.06 1013.06 1012.90 1012.90 1013.02 1013.14 1013.18 1013.10 1012.90 1012.78 1012.70 1012.62 1012.58 1012.58 1012.50 1012.38 1012.18 1011.94 1011.74 1011.50 1011.42 1011.18 1010.98 1010.94 1010.82 1010.70 1010.50 1010.46 1010.66 1010.86 1010.98 1011.10 1011.42 1011.62 1011.78 1011.94 1011.98 1011.98 1011.98 1012.50 1012.82 1013.22 1013.42 1013.58 1013.82 1014.02 1014.38 1014.66 1014.82 1015.06 1015.42 1015.70 1015.98 1015.94 1015.82 1015.78 1015.86 1015.94 1015.42
1013.30 1013.18 1013.06 1012.94 1012.78 1012.78 1012.82 1012.90 1013.14 1013.10 1013.10 1012.94 1012.74 1012.58 1012.50 1012.42 1012.34 1012.30 1012.34 1012.22 1012.06 1011.98 1011.78 1011.54 1011.30 1010.98 1010.82 1010.62 1010.42 1010.38 1010.30 1010.22 1010.26 1010.50 1010.62 1010.86 1011.10 1011.22 1011.30 1011.38 1011.50 1011.66 1011.62 1012.10 1012.70 1013.22 1013.58 1013.82 1014.14 1014.38 1014.50 1014.70 1014.90 1014.98 1015.34 1015.70 1015.94 1015.94 1015.70 1015.58 1015.58 1015.30 1015.30
1013.06 1012.94 1012.90 1012.90 1012.98 1013.06 1013.02 1013.22 1013.22 1013.06 1012.82 1012.78 1012.78 1012.50 1012.30 1012.18 1012.14 1012.14 1012.14 1011.94 1011.82 1011.66 1011.62 1011.38 1011.02 1010.66 1010.50 1010.30 1010.06 1009.94 1009.94 1009.94 1010.02 1010.10 1010.26 1010.54 1010.66 1010.78 1011.10 1011.30 1011.46 1011.50 1011.62 1011.86 1012.34 1013.06 1013.50 1013.86 1014.30 1014.62 1014.82 1014.94 1015.10 1015.30 1015.38 1015.62 1015.86 1015.86 1015.62 1015.50 1015.42 1015.34 1015.66
1013.06 1012.98 1012.90 1012.74 1012.78 1012.90 1013.06 1013.10 1013.06 1012.90 1012.90 1012.90 1012.66 1012.26 1012.10 1011.98 1011.94 1011.94 1011.82 1011.62 1011.34 1011.30 1011.26 1011.02 1010.62 1010.22 1009.90 1009.70 1009.66 1009.66 1009.66 1009.66 1009.78 1009.78 1009.86 1010.06 1010.26 1010.46 1010.74 1010.98 1011.42 1011.78 1012.06 1012.22 1012.50 1013.18 1013.54 1013.82 1014.22 1014.70 1015.06 1015.18 1015.26 1015.34 1015.38 1015.58 1015.70 1015.82 1015.62 1015.50 1015.54 1015.58 1015.70
1012.82 1012.78 1012.86 1012.94 1013.02 1013.14 1013.10 1013.10 1013.06 1013.02 1012.90 1012.70 1012.38 1012.18 1011.94 1011.86 1011.86 1011.78 1011.50 1011.26 1011.06 1010.82 1010.46 1010.14 1010.02 1009.90 1009.74 1009.46 1009.22 1009.14 1009.26 1009.34 1009.42 1009.54 1009.54 1009.66 1010.02 1010.30 1010.66 1010.98 1011.38 1011.70 1012.14 1012.46 1012.78 1013.22 1013.66 1013.94 1014.26 1014.74 1015.22 1015.30 1015.34 1015.42 1015.54 1015.58 1015.70 1015.90 1015.74 1015.70 1015.74 1015.82 1015.86
1012.70 1012.70 1012.74 1012.94 1013.18 1013.26 1013.18 1013.10 1013.06 1012.98 1012.78 1012.50 1012.34 1012.06 1011.90 1011.86 1011.90 1011.66 1011.38 1011.14 1010.90 1010.34 1009.82 1009.58 1009.42 1009.42 1009.50 1009.34 1009.10 1008.86 1008.78 1008.86 1009.02 1009.14 1009.34 1009.54 1009.86 1010.38 1010.90 1011.10 1011.30 1011.62 1011.98 1012.34 1012.78 1013.30 1013.82 1014.10 1014.34 1014.62 1015.06 1015.34 1015.46 1015.66 1015.82 1015.86 1015.78 1015.90 1016.10 1016.06 1016.10 1016.10 1016.06
1013.02 1013.18 1013.38 1013.42 1013.34 1013.26 1013.26 1013.26 1013.18 1013.10 1012.90 1012.54 1012.26 1012.06 1011.90 1011.94 1011.90 1011.62 1011.26 1011.06 1010.50 1009.94 1009.58 1009.26 1008.94 1008.82 1008.90 1008.98 1008.90 1008.70 1008.58 1008.62 1008.70 1008.94 1009.06 1009.38 1009.66 1010.18 1011.02 1011.34 1011.62 1012.02 1012.30 1012.50 1012.86 1013.34 1013.98 1014.38 1014.74 1015.10 1015.58 1015.94 1016.10 1016.18 1016.22 1016.18 1016.14 1016.10 1016.30 1016.42 1016.42 1016.50 1016.58
1013.18 1013.34 1013.30 1013.22 1013.26 1013.34 1013.34 1013.42 1013.26 1013.14 1012.94 1012.58 1012.34 1012.10 1012.02 1012.02 1011.90 1011.62 1011.34 1011.06 1010.42 1009.98 1009.50 1009.06 1008.66 1008.58 1008.70 1008.70 1008.58 1008.42 1008.38 1008.42 1008.62 1008.74 1008.86 1009.18 1009.66 1010.30 1011.02 1011.54 1011.82 1012.14 1012.46 1012.78 1013.14 1013.62 1014.18 1014.70 1015.06 1015.62 1016.06 1016.42 1016.70 1016.70 1016.54 1016.46 1016.38 1016.46 1016.46 1016.66 1016.82 1016.98 1017.18
1013.38 1013.54 1013.54 1013.66 1013.54 1013.42 1013.34 1013.42 1013.38 1013.22 1012.94 1012.66 1012.46 1012.22 1012.06 1011.94 1011.90 1011.70 1011.46 1010.94 1010.38 1010.06 1009.62 1009.10 1008.62 1008.54 1008.58 1008.50 1008.34 1008.26 1008.18 1008.34 1008.54 1008.66 1008.82 1009.10 1009.58 1010.30 1010.82 1011.26 1011.58 1012.22 1012.62 1012.82 1013.38 1013.90 1014.46 1015.02 1015.34 1015.62 1015.94 1016.22 1016.70 1016.94 1016.98 1016.90 1016.78 1016.78 1016.90 1017.06 1017.26 1017.42 1017.58
1013.54 1013.54 1013.58 1013.50 1013.50 1013.46 1013.38 1013.34 1013.34 1013.22 1013.06 1012.74 1012.46 1012.26 1012.10 1011.94 1011.82 1011.78 1011.42 1010.82 1010.46 1010.10 1009.70 1009.34 1008.98 1008.70 1008.50 1008.26 1008.22 1008.22 1008.22 1008.58 1008.90 1008.90 1008.94 1009.22 1009.50 1009.86 1010.18 1010.62 1011.22 1011.82 1012.58 1012.98 1013.34 1013.86 1014.34 1015.22 1015.78 1016.02 1016.22 1016.54 1016.94 1017.18 1017.34 1017.34 1017.26 1017.26 1017.30 1017.38 1017.58 1017.82 1018.02
1013.70 1013.82 1013.82 1013.82 1013.74 1013.54 1013.42 1013.46 1013.42 1013.38 1013.14 1012.98 1012.62 1012.30 1012.02 1011.90 1011.70 1011.50 1011.14 1010.82 1010.46 1010.14 1009.86 1009.66 1009.50 1009.42 1009.34 1009.34 1009.26 1009.06 1008.90 1009.02 1009.30 1009.70 1009.90 1010.10 1010.26 1010.42 1010.54 1010.78 1011.18 1011.54 1012.14 1012.86 1013.46 1013.98 1014.30 1014.86 1015.50 1016.26 1016.54 1016.70 1017.10 1017.38 1017.54 1017.50 1017.62 1017.82 1017.86 1017.82 1017.98 1018.18 1018.34
1013.78 1013.82 1013.82 1013.78 1013.70 1013.58 1013.54 1013.58 1013.58 1013.38 1013.14 1013.02 1012.74 1012.42 1012.18 1011.90 1011.70 1011.38 1011.10 1010.78 1010.46 1010.22 1010.06 1010.02 1009.94 1009.90 1009.90 1009.82 1009.78 1009.78 1009.66 1009.82 1010.06 1010.18 1010.62 1011.06 1011.26 1011.70 1012.10 1011.98 1011.90 1012.30 1013.02 1013.62 1013.78 1013.90 1014.58 1015.06 1015.42 1015.86 1016.50 1017.10 1017.06 1016.98 1017.78 1018.02 1018.06 1018.22 1018.26 1018.34 1018.38 1018.58 1018.62
1013.82 1013.86 1013.82 1013.78 1013.74 1013.62 1013.70 1013.62 1013.54 1013.38 1013.18 1013.02 1012.74 1012.42 1012.18 1011.98 1011.70 1011.38 1011.14 1010.86 1010.62 1010.54 1010.54 1010.54 1010.42 1010.30 1010.26 1010.18 1010.14 1010.38 1010.58 1010.94 1011.06 1011.30 1011.42 1011.74 1012.30 1012.86 1013.66 1014.10 1013.22 1012.90 1013.54 1014.14 1014.26 1014.50 1014.78 1015.10 1015.66 1015.94 1016.34 1017.02 1017.14 1016.50 1017.70 1017.98 1017.98 1018.26 1018.70 1018.74 1018.74 1018.70 1018.78
1013.78 1013.82 1013.86 1013.74 1013.66 1013.70 1013.70 1013.62 1013.54 1013.46 1013.30 1013.10 1012.70 1012.34 1012.18 1011.98 1011.78 1011.54 1011.26 1011.02 1010.94 1010.94 1011.06 1011.02 1010.98 1010.82 1010.86 1010.78 1010.86 1011.06 1011.10 1011.34 1011.70 1012.02 1012.14 1012.10 1012.46 1013.02 1013.94 1015.38 1015.34 1013.66 1013.38 1014.46 1015.10 1015.18 1015.50 1015.42 1015.58 1016.02 1016.50 1017.02 1017.34 1017.14 1016.78 1017.26 1017.90 1018.62 1018.90 1019.02 1019.02 1019.02 1018.94
1013.82 1013.86 1013.82 1013.70 1013.74 1013.78 1013.70 1013.62 1013.54 1013.46 1013.42 1013.14 1012.66 1012.38 1012.14 1012.10 1011.98 1011.86 1011.62 1011.42 1011.34 1011.38 1011.50 1011.42 1011.42 1011.42 1011.34 1011.30 1011.38 1011.50 1011.74 1012.14 1012.42 1012.70 1013.02 1013.30 1013.46 1013.82 1014.62 1015.74 1016.50 1015.70 1015.14 1015.30 1016.06 1016.38 1016.54 1016.22 1015.90 1016.06 1016.34 1016.62 1017.14 1017.66 1017.70 1018.02 1018.50 1018.74 1018.98 1019.14 1019.18 1019.18 1019.18
1013.74 1013.66 1013.62 1013.58 1013.66 1013.74 1013.70 1013.70 1013.70 1013.70 1013.62 1013.26 1012.94 1012.62 1012.30 1012.22 1012.26 1012.22 1011.98 1011.78 1011.74 1011.74 1011.82 1011.86 1011.90 1012.14 1012.22 1012.14 1012.06 1011.98 1012.10 1012.54 1013.10 1013.62 1013.54 1013.74 1014.18 1014.50 1014.98 1015.34 1015.54 1016.10 1016.46 1016.62 1016.90 1017.38 1017.46 1016.86 1016.62 1016.70 1016.74 1016.70 1016.78 1017.18 1018.06 1018.50 1018.70 1018.86 1019.06 1019.22 1019.26 1019.30 1019.34
Wind_Speed
7 10 11 10 10 12 12 12 13 12 12 12 12 14 14 13 12 11 11 12 13 12 11 11 11 10 11 9 10 9 9 8 7 7 7 7 6 6 7 7 7 6 6 6 6 6 5 5 5 6 6 6 6 5 5 5 5 5 5 4 5 5 5
6 7 9 10 10 11 12 11 12 11 11 12 12 13 12 14 12 12 11 12 14 13 12 11 11 11 11 10 9 9 9 9 8 6 6 5 5 5 6 6 6 6 6 5 5 4 5 5 6 6 6 6 7 6 5 6 6 6 5 5 5 4 5
3 5 7 9 9 9 11 10 11 11 11 10 9 9 11 12 12 13 12 12 13 12 12 12 12 12 11 10 10 11 10 10 9 9 9 8 8 9 7 6 6 6 6 5 5 5 5 6 6 6 6 6 6 6 5 6 5 6 5 5 5 5 4
2 4 5 7 8 8 9 10 11 10 6 7 8 7 7 8 9 10 11 13 14 13 13 13 12 13 12 11 12 11 11 11 10 10 10 9 8 7 6 6 5 5 5 6 6 5 5 5 6 5 6 6 6 6 5 5 5 5 5 5 5 5 5
3 2 3 4 6 7 8 9 10 9 9 9 10 10 11 10 10 9 10 12 13 15 16 15 12 12 10 11 10 10 11 12 10 9 8 7 7 6 6 7 6 7 6 6 5 5 5 6 6 6 5 5 6 5 5 5 5 5 5 5 5 5 6
4 4 2 3 5 5 7 9 10 10 10 9 8 10 12 12 12 14 12 11 11 11 11 12 13 11 11 12 11 10 10 10 9 9 8 8 8 8 8 8 7 7 7 7 6 6 6 6 7 6 6 6 6 6 6 5 5 6 6 5 6 6 6
4 4 3 2 1 3 6 7 7 8 7 9 11 11 10 10 13 13 12 12 12 12 12 12 13 12 11 10 11 11 11 11 10 11 10 10 10 10 9 8 7 7 7 5 6 6 6 7 7 7 6 7 6 6 6 6 7 6 5 5 5 5 5
5 4 3 2 1 1 2 4 7 8 8 9 11 12 12 11 11 11 13 13 13 13 12 13 12 11 10 10 9 12 12 12 10 11 10 11 10 11 10 9 8 7 6 7 7 7 7 7 7 6 6 6 6 7 7 7 6 6 5 5 5 6 5
4 3 4 4 2 1 2 2 4 6 9 11 13 13 13 13 11 11 12 11 11 13 13 13 13 11 10 9 9 11 11 11 10 10 12 12 11 12 12 10 10 8 8 8 8 7 7 7 7 5 5 6 6 6 7 5 6 5 5 4 5 6 6
5 5 3 3 2 1 1 2 3 5 7 8 8 10 11 11 10 10 10 10 10 13 13 12 11 10 10 11 12 12 12 11 10 12 12 12 12 13 12 11 10 9 10 10 9 8 7 8 7 6 5 6 6 6 6 6 6 6 6 7 7 7 7
4 5 5 3 3 3 1 3 4 5 6 6 6 6 7 9 9 9 9 10 12 12 12 12 11 11 11 12 13 13 12 12 12 12 12 12 11 13 13 12 11 9 10 10 10 9 8 6 6 6 6 6 6 6 6 7 7 7 7 7 7 7 7
4 4 5 6 4 3 3 2 3 4 5 5 6 6 6 6 6 7 8 9 10 10 10 11 10 11 11 11 13 12 13 13 13 13 13 13 13 13 12 11 11 11 10 10 11 10 9 7 6 6 7 7 7 7 7 7 7 7 8 7 7 6 6
3 4 4 5 5 4 3 2 2 4 4 5 6 6 5 5 6 6 6 7 9 10 10 10 8 8 9 11 13 12 13 13 13 13 13 12 12 11 11 11 11 11 11 10 10 10 10 9 8 6 7 7 7 8 7 7 7 6 6 4 7 8 7
2 2 2 3 3 4 4 3 3 3 3 4 5 6 7 6 6 7 6 6 6 7 9 8 10 11 10 10 11 12 13 13 12 12 11 10 10 10 10 11 11 11 10 9 10 10 10 10 9 8 8 7 7 7 6 6 6 2 4 3 8 8 7
1 2 2 3 4 5 5 5 5 4 4 4 5 6 6 6 6 7 7 7 6 6 8 8 9 10 12 11 11 11 11 11 10 10 10 10 9 9 10 11 11 10 9 9 10 9 10 10 10 8 8 7 7 6 6 6 4 5 7 7 5 5 9
2 3 3 3 3 5 6 6 6 7 7 6 6 6 6 6 6 6 6 7 7 8 8 7 9 9 11 12 12 11 11 10 10 10 10 10 10 11 11 11 11 11 10 10 10 9 8 8 8 9 9 8 7 7 6 5 4 6 8 6 4 6 7
3 3 3 3 4 5 6 6 7 7 7 7 7 7 6 6 6 6 7 6 7 8 8 8 9 10 11 12 12 11 10 10 10 10 11 11 11 10 10 11 10 10 10 10 10 10 9 8 10 10 9 9 8 8 6 5 1 4 10 11 11 8 6
3 4 4 4 5 5 6 7 8 9 8 8 7 7 6 6 7 6 7 7 8 7 6 8 9 11 12 12 11 11 11 10 11 11 11 11 12 11 11 10 10 10 10 10 11 9 9 10 10 9 9 8 9 7 5 3 9 7 6 8 7 10 7
3 4 5 5 6 6 7 8 8 9 9 8 7 7 8 7 7 7 7 7 7 7 8 9 9 10 11 11 11 11 11 11 11 11 11 11 11 11 10 11 11 11 11 12 11 9 9 10 9 9 9 9 7 5 4 5 7 8 8 8 11 9 7
3 4 5 5 6 7 7 7 7 7 8 8 8 8 8 8 8 6 6 7 7 7 7 9 10 11 12 11 11 11 11 11 12 12 12 11 11 11 11 11 12 12 11 10 9 9 9 10 10 9 7 6 6 5 4 5 6 4 9 11 11 8 9
3 4 6 7 7 8 8 9 8 8 9 8 9 7 7 7 7 7 7 6 7 7 7 8 9 11 11 12 13 12 12 12 12 12 12 11 11 10 11 11 11 10 9 8 9 9 9 9 9 6 4 5 5 5 4 4 3 3 6 9 10 8 8
3 4 6 6 8 8 9 9 10 10 9 8 8 8 8 8 7 7 7 7 7 6 7 8 9 11 12 12 12 13 13 12 12 12 12 11 11 11 11 11 10 10 9 8 7 6 5 4 4 6 6 5 6 6 5 4 2 2 6 9 11 12 9
3 4 6 7 8 9 9 9 9 8 8 9 9 9 9 8 8 8 8 8 7 6 7 8 9 10 11 12 12 12 13 13 12 12 12 12 12 12 12 12 11 10 8 8 6 4 4 4 5 5 7 7 6 7 5 4 2 2 2 4 10 10 5
4 5 6 7 8 8 9 8 8 9 9 10 10 9 9 9 9 9 9 8 8 8 8 8 9 9 10 11 12 12 12 14 15 14 14 11 12 13 11 10 8 9 8 9 7 6 6 5 6 5 5 6 6 5 6 5 3 1 2 4 5 5 4
5 5 6 7 8 9 9 8 8 9 9 10 10 10 9 10 9 9 9 8 9 9 9 10 10 10 10 10 12 13 13 13 14 15 14 13 12 11 11 11 8 8 7 7 7 7 7 6 6 6 5 5 7 8 8 6 4 3 4 7 8 7 7
5 5 5 7 7 7 8 8 9 9 10 10 10 9 9 10 9 9 9 9 9 9 10 11 12 11 11 10 11 12 13 13 14 15 15 13 12 10 8 8 8 9 8 6 8 10 9 8 8 8 6 5 6 6 6 7 5 5 7 10 10 9 8
5 4 6 7 7 8 8 8 8 9 9 7 8 9 10 9 9 10 10 11 11 11 11 10 10 11 11 11 12 13 14 13 13 14 13 13 11 8 8 8 10 10 8 10 10 9 7 9 10 10 8 6 6 7 6 5 8 6 8 11 11 11 10
4 4 5 5 6 7 8 8 9 8 7 7 10 10 9 9 9 10 10 10 12 13 12 12 10 8 12 12 12 13 13 13 12 13 12 10 10 10 9 8 9 10 11 12 10 10 10 11 11 12 11 8 7 8 8 8 9 8 8 9 10 9 10
4 4 5 7 7 7 7 8 7 7 8 9 9 9 9 9 10 10 10 10 11 11 11 12 12 11 9 11 12 12 13 12 11 11 11 10 10 11 10 8 8 8 8 11 10 11 12 12 11 12 11 9 8 8 8 8 8 10 9 10 11 11 11
3 3 4 5 5 6 6 5 6 6 7 8 9 9 8 8 9 9 9 10 10 11 11 11 11 8 8 8 10 11 12 13 12 11 11 10 10 11 11 10 9 10 10 10 11 12 13 10 10 11 10 9 7 8 8 8 8 10 13 11 13 12 13
2 3 4 3 4 5 5 5 5 6 6 7 8 8 7 7 8 9 9 10 10 9 9 10 9 7 7 8 9 10 11 11 10 11 10 11 12 12 11 12 12 9 8 10 10 9 10 10 11 9 8 9 7 7 8 7 7 7 10 14 12 12 13
1 1 2 2 3 4 4 3 4 5 6 7 8 7 7 7 8 8 9 9 8 8 7 6 5 6 7 7 7 7 7 6 2 3 7 10 11 13 12 14 13 11 10 10 10 9 11 10 9 8 8 8 8 9 7 7 6 7 8 8 11 9 11
1 2 3 3 3 3 4 4 4 5 6 7 8 7 7 8 7 7 8 8 8 7 7 7 7 8 8 9 8 9 5 5 6 7 8 8 7 6 9 11 12 12 11 10 10 11 11 12 10 9 9 9 9 7 6 6 6 4 5 4 4 4 5
1 2 2 3 3 3 3 4 4 4 6 6 6 5 6 7 7 8 8 8 8 7 8 8 8 8 9 9 9 9 11 11 14 14 11 10 10 9 8 5 9 10 10 9 9 12 12 11 11 11 9 8 8 10 6 4 4 3 3 2 3 3 2
2 3 3 3 3 4 4 3 3 4 5 5 4 5 6 7 7 7 8 9 9 9 11 11 12 12 14 11 11 13 12 12 13 12 14 15 14 14 13 9 6 13 13 11 7 7 10 12 11 9 9 7 5 10 8 4 5 3 2 1 2 3 4
4 4 4 4 3 4 4 3 4 5 5 4 4 6 7 8 9 9 8 9 9 9 10 11 12 13 14 13 14 12 12 12 12 12 11 13 15 16 17 21 19 12 13 12 14 17 12 8 10 10 8 7 4 3 5 7 5 6 5 2 2 0 2
5 5 4 4 5 4 4 4 5 5 5 5 6 6 8 9 9 9 9 10 10 10 11 12 12 12 12 14 15 17 13 11 10 11 12 12 13 14 14 13 12 21 23 21 15 14 14 14 16 14 10 8 6 8 13 11 9 7 5 5 4 3 4
3 4 4 4 5 4 5 5 6 6 6 6 6 7 9 11 10 9 9 9 10 10 10 12 14 14 14 12 10 13 11 12 13 11 12 13 12 12 12 12 12 13 20 20 18 16 13 14 15 14 13 13 11 9 7 9 8 9 8 7 7 7 7
Wind_Direction
236 219 213 208 200 197 198 198 197 196 193 191 192 195 193 191 191 188 190 187 194 198 193 190 191 190 192 193 195 194 197 199 202 207 207 213 215 211 207 213 214 214 221 224 224 226 230 225 226 231 232 232 240 234 232 236 241 246 242 239 246 251 256
229 222 216 213 209 203 200 195 198 201 198 196 192 192 193 191 187 189 193 192 195 198 196 195 193 196 193 191 192 192 196 199 199 203 211 208 205 211 217 211 217 212 216 228 227 226 226 223 224 229 234 233 238 237 238 237 241 245 251 244 250 259 262
254 240 223 211 208 206 198 189 198 203 203 200 195 194 198 195 188 189 189 193 197 201 200 199 199 200 197 192 189 194 197 199 200 204 210 216 214 221 212 214 215 224 228 223 226 235 227 232 220 230 236 243 249 238 237 242 240 247 249 250 252 254 261
291 256 241 229 216 208 201 196 195 196 166 126 138 187 213 211 203 196 194 194 198 200 203 207 204 204 201 198 198 194 197 199 202 207 213 219 221 216 211 207 216 226 221 227 232 229 238 232 231 227 229 241 246 251 254 254 256 248 246 241 247 247 248
335 276 244 226 216 205 202 196 188 161 149 163 172 183 197 201 201 207 208 207 204 203 206 207 206 206 206 203 203 203 202 202 201 205 209 212 213 217 220 228 220 225 231 237 227 222 223 232 238 229 227 229 245 243 243 242 246 240 243 237 247 247 250
354 351 301 230 210 200 201 196 181 175 172 154 169 199 207 200 200 205 205 206 212 217 212 209 210 203 205 207 209 206 200 198 195 193 199 197 204 217 221 223 229 230 231 232 233 229 220 228 236 235 236 233 237 247 247 242 240 236 232 231 240 250 254
356 354 358 344 289 219 195 183 179 181 176 174 192 203 202 201 207 206 198 195 194 204 214 214 212 208 209 207 209 206 203 205 199 201 200 204 206 215 219 221 224 231 239 238 233 229 225 223 228 231 235 247 251 252 245 234 239 234 233 229 235 240 246
5 356 8 3 309 282 238 204 186 182 182 186 195 206 206 206 206 206 201 197 195 204 208 216 216 211 209 206 208 211 211 213 206 203 202 208 210 214 219 221 221 221 224 234 233 227 230 230 235 234 237 246 247 246 245 241 235 241 235 234 234 243 238
359 3 359 5 354 256 209 199 203 203 197 193 197 203 203 207 209 203 204 199 196 200 203 205 210 206 201 202 205 211 215 213 209 205 207 212 216 220 223 223 222 219 224 233 236 224 230 234 237 230 231 242 247 243 252 247 251 245 241 235 235 244 249
349 346 358 4 20 4 254 219 216 216 214 213 211 211 204 205 207 205 202 195 194 200 201 200 201 200 198 206 213 215 216 214 214 214 213 217 220 224 225 228 227 219 226 233 235 234 224 226 232 222 223 234 239 243 248 249 241 237 229 230 231 234 233
348 343 339 360 19 19 323 231 219 221 220 219 221 233 226 215 215 212 212 206 207 209 207 207 203 201 200 205 213 214 213 217 216 217 216 218 221 224 224 226 229 225 226 229 233 234 234 212 213 216 220 230 235 237 237 242 240 237 237 234 233 234 240
355 352 351 344 359 17 354 299 251 232 223 223 228 229 226 235 239 233 226 222 216 212 205 208 205 200 196 203 210 212 214 216 218 219 217 215 219 224 225 226 227 228 225 225 229 231 231 222 214 218 219 224 228 234 238 241 239 236 238 242 238 238 244
353 3 352 348 343 343 340 322 282 252 232 226 224 224 225 226 231 243 243 240 233 229 217 209 195 206 207 202 206 213 216 216 215 218 220 218 218 219 223 226 228 228 229 223 224 225 229 226 215 211 225 224 228 236 236 237 237 238 245 285 298 283 265
337 3 353 337 340 349 348 341 324 311 280 252 234 220 216 213 219 226 233 237 247 242 230 219 206 202 212 215 213 212 213 217 218 216 216 216 213 212 217 224 229 230 231 229 225 224 228 230 222 220 229 228 224 230 234 235 242 241 51 295 258 266 273
298 302 325 339 345 352 356 359 352 337 324 312 294 275 253 225 210 207 215 221 223 239 239 229 213 200 205 211 215 215 212 208 211 212 209 209 211 213 216 220 225 227 228 226 229 231 230 228 230 232 228 220 222 227 229 237 226 153 193 220 249 284 286
266 283 297 317 335 344 346 351 354 353 347 340 331 316 299 283 265 242 228 224 212 218 230 226 223 214 210 214 214 215 211 208 205 206 209 211 213 214 213 217 221 224 224 227 230 231 229 225 225 233 234 227 219 225 228 229 203 187 179 198 227 247 252
273 280 294 309 322 329 334 338 346 347 346 345 340 334 324 310 297 278 260 246 234 227 223 220 225 220 215 218 217 215 212 209 211 209 208 207 209 213 214 217 218 219 219 220 221 224 219 221 228 230 233 229 229 233 224 213 174 118 175 188 204 223 240
272 292 303 314 315 315 320 328 333 337 334 331 326 327 328 325 314 301 288 271 255 244 228 227 229 226 222 220 217 213 211 211 211 209 211 208 208 208 210 212 214 216 216 219 222 216 220 225 227 226 229 231 235 231 219 164 77 97 134 159 187 230 240
267 287 296 309 311 316 323 327 329 329 331 328 325 322 325 324 319 315 302 286 281 265 249 240 234 231 231 226 221 218 213 212 211 211 212 211 209 208 205 207 212 215 216 218 219 218 216 218 221 223 223 226 218 200 167 127 82 106 133 161 205 196 223
257 280 290 296 304 310 316 320 324 324 323 323 325 329 330 325 322 324 328 317 292 263 257 250 244 242 237 230 224 220 216 211 212 213 212 210 209 207 205 205 211 215 218 218 213 211 212 218 221 221 213 203 192 147 131 120 82 121 150 182 215 209 205
259 280 293 302 307 313 317 322 322 322 322 327 333 335 333 322 326 328 322 321 318 305 270 241 247 246 244 241 235 226 221 214 211 214 212 209 206 205 208 208 210 213 213 212 209 208 210 213 212 196 166 154 147 141 127 88 69 152 154 174 197 214 221
263 277 290 303 310 315 317 321 322 324 333 338 332 325 322 319 320 318 310 311 298 294 298 284 253 245 245 244 241 235 227 219 214 212 212 206 204 208 209 208 207 206 204 206 213 207 192 160 157 134 131 130 130 129 127 105 44 176 172 167 184 188 203
254 277 295 301 305 312 320 321 328 343 335 326 322 321 322 322 319 310 304 300 295 289 286 279 275 261 248 246 244 240 234 226 217 213 208 204 197 200 203 203 200 199 190 194 189 164 154 139 129 128 132 138 143 139 126 119 42 322 189 167 161 187 206
248 273 287 297 304 310 322 338 353 331 324 321 320 323 322 317 312 308 299 292 286 283 274 271 267 267 262 251 245 242 238 234 229 222 214 196 198 199 197 195 194 198 181 177 156 151 137 132 122 118 125 134 136 135 124 108 65 335 131 122 168 219 174
269 282 294 302 308 315 326 340 328 322 323 327 324 325 316 312 308 306 301 293 287 275 267 262 259 252 249 251 248 242 238 233 231 229 217 203 199 197 196 200 195 197 178 148 134 127 126 118 113 109 104 109 110 108 111 107 90 69 119 118 115 128 133
265 275 299 317 323 329 329 326 324 329 335 333 322 307 314 316 310 305 299 297 291 280 267 259 256 256 255 247 241 245 242 237 232 229 220 205 199 190 179 170 166 168 169 130 125 136 140 128 130 128 122 120 116 112 111 109 101 86 109 115 116 121 135
264 281 312 325 330 334 326 329 332 336 333 311 312 324 324 322 316 309 306 304 300 292 283 271 259 255 250 250 246 235 234 233 228 225 223 217 204 182 179 174 173 168 149 145 147 141 127 125 127 127 124 114 110 108 102 109 114 92 105 113 118 124 129
274 292 317 327 332 335 332 332 337 331 319 324 333 330 329 327 317 311 309 306 297 295 300 297 278 254 250 246 245 242 231 219 212 220 220 213 201 188 178 175 175 167 150 153 138 137 129 138 141 134 127 116 102 100 99 102 103 110 91 101 103 105 109
291 310 325 330 335 345 341 336 337 329 329 333 338 337 338 333 324 320 315 303 302 306 300 290 288 279 257 245 240 237 231 217 199 203 215 202 195 178 158 158 158 151 139 142 134 131 136 141 137 127 118 108 105 106 110 107 100 97 98 86 92 93 91
286 308 321 332 338 338 335 328 336 333 338 342 344 344 346 343 333 328 321 314 313 307 299 288 286 281 265 250 241 236 230 219 207 200 194 180 169 150 142 140 144 149 153 150 144 140 136 135 128 115 106 105 107 105 104 105 104 90 93 88 87 89 88
315 330 337 349 344 340 338 343 344 335 342 352 353 355 356 356 346 338 333 329 323 319 316 296 281 275 260 245 236 226 220 216 214 205 198 182 154 151 149 151 149 138 138 139 130 123 119 123 126 116 115 110 108 108 100 95 92 90 89 90 86 87 88
280 6 358 348 357 357 354 359 355 353 352 359 5 5 8 8 7 355 342 335 337 331 325 337 326 291 276 260 242 221 203 204 158 166 171 153 161 163 161 148 141 135 136 128 120 120 120 119 115 108 109 110 114 110 104 89 77 86 96 94 95 90 94
51 42 21 20 21 5 23 19 20 9 0 8 8 10 15 16 17 5 353 356 355 359 11 30 47 57 52 48 43 37 44 107 116 80 69 76 75 113 138 141 146 137 127 124 123 122 123 120 119 116 121 116 107 93 89 90 73 70 80 63 77 90 105
86 72 57 53 54 40 57 49 32 13 19 18 14 8 16 25 21 16 6 11 18 31 51 57 59 60 59 59 52 49 66 71 79 82 79 61 60 59 52 61 105 99 94 109 123 126 117 118 117 117 113 108 124 114 79 62 82 78 80 73 86 103 90
96 82 85 87 63 61 71 48 28 22 36 26 353 9 30 30 22 13 22 31 42 59 68 67 67 70 71 72 76 77 66 68 71 75 80 80 71 60 45 20 82 98 88 67 68 79 107 110 102 103 110 124 147 115 123 140 124 128 55 34 7 124 146
118 113 109 93 85 85 73 39 13 24 28 14 24 46 44 39 41 35 35 50 55 56 67 72 72 73 75 76 76 75 77 81 78 69 70 81 89 84 69 34 13 57 92 89 50 54 56 94 118 126 123 107 59 56 127 131 120 109 124 163 178 332 72
135 133 119 102 109 98 70 44 28 32 23 18 40 53 56 53 46 40 39 57 65 66 71 76 77 77 80 83 86 86 78 74 72 81 85 80 80 84 86 94 44 39 56 67 68 63 60 66 77 84 95 119 120 71 68 85 104 126 152 153 169 169 134
122 134 124 110 113 102 80 67 53 35 19 15 40 53 61 63 55 49 49 55 73 74 75 80 84 84 84 83 79 86 84 85 84 78 86 89 84 86 95 87 89 58 46 56 60 58 57 63 69 74 77 79 90 104 78 71 88 114 124 130 127 128 127